GFSMW_sfc_rhum_267.txt.gz
RH
47 40 40 44 47 48 50 56 71 73 64 66 66 65 73 66 75 72 58 78 70 70 72 82 77 85 73 71 73 76 75 79 77 77 76 74 70 68 64 57 56 60 52
50 43 43 44 49 50 50 52 58 75 77 63 62 59 64 64 61 64 68 71 73 69 68 69 81 77 83 77 75 77 81 83 81 70 81 79 69 69 63 62 54 59 58
68 46 43 45 49 54 51 50 55 65 84 80 72 70 71 68 64 66 63 75 68 70 69 70 67 78 79 76 79 75 69 73 83 76 72 86 79 75 71 56 54 49 60
70 65 54 46 45 52 52 47 51 60 74 90 88 82 78 68 66 62 61 56 74 68 69 72 70 68 76 77 72 74 76 80 67 87 70 74 80 84 86 84 74 65 58
77 75 72 54 46 45 50 50 50 55 64 85 93 96 95 90 86 81 67 63 60 72 68 71 73 72 71 80 76 68 76 76 66 74 86 75 66 90 88 76 80 90 82
79 78 71 62 51 44 50 47 51 53 57 77 86 92 95 97 95 94 96 95 78 70 73 71 75 73 73 72 78 79 74 72 74 66 75 82 77 69 89 86 78 64 72
83 84 86 78 71 57 50 51 47 54 56 69 80 87 90 91 95 96 97 97 96 95 92 86 82 78 76 74 72 77 76 74 72 76 71 66 71 77 68 73 72 86 80
86 84 84 84 77 73 58 57 52 51 55 65 76 80 86 90 88 91 93 96 96 95 90 96 93 86 79 77 78 74 75 75 80 71 75 73 69 72 75 79 79 94 94
86 85 83 82 78 77 72 60 56 54 54 61 64 76 80 84 89 88 89 92 95 94 92 91 90 93 94 91 85 85 82 76 79 82 82 76 77 83 77 90 83 82 85
86 84 79 78 74 70 68 64 57 55 55 56 61 63 70 76 80 82 88 90 90 92 94 94 93 90 88 92 96 92 90 93 91 87 92 92 88 90 92 88 86 91 79
88 86 84 77 78 78 77 70 62 58 55 57 60 65 66 69 72 78 81 85 90 91 92 95 93 93 92 90 90 92 91 96 96 95 94 86 81 82 88 89 88 82 84
79 79 82 81 82 81 78 81 72 56 56 53 61 65 68 67 72 72 76 80 83 86 90 91 94 93 95 94 94 90 89 92 93 94 95 90 88 90 88 90 89 89 85
48 56 71 74 77 72 72 73 74 68 63 54 60 66 69 72 77 73 76 74 81 82 82 82 90 91 94 95 94 92 89 89 90 93 95 93 94 97 98 95 93 90 88
35 38 41 46 49 51 54 58 57 60 57 65 69 75 76 72 74 73 80 75 78 78 83 81 82 82 82 90 90 88 91 90 92 93 95 95 95 94 95 98 99 98 98
32 35 38 42 42 43 46 50 52 56 59 60 73 78 80 75 81 76 77 77 76 76 82 85 81 81 77 82 88 87 85 85 87 90 86 91 97 100 100 98 97 95 97
31 31 32 35 38 40 49 49 52 56 60 66 67 63 65 65 72 78 84 77 75 79 81 82 82 85 73 90 89 84 78 76 77 84 82 82 86 88 100 100 100 100 99
33 36 41 43 44 53 54 58 55 56 59 60 63 64 64 68 74 72 82 83 88 87 85 82 82 80 81 88 87 90 80 79 81 80 80 75 67 88 84 91 99 100 100
38 44 49 50 57 58 57 56 55 55 61 61 61 63 67 70 85 79 86 95 87 82 84 82 81 81 76 85 89 92 82 85 83 84 84 84 81 82 95 88 85 85 91
47 52 53 54 61 59 59 60 59 59 59 62 63 63 68 69 77 88 92 97 90 91 87 81 83 85 82 84 88 88 85 84 90 85 84 84 90 99 98 93 94 92 96
52 52 52 56 60 62 60 64 67 67 67 67 65 64 64 66 72 79 86 88 83 78 73 74 78 78 80 82 85 82 83 87 87 83 77 86 95 99 94 93 96 99 100
53 50 54 60 61 62 63 69 73 75 68 65 66 66 67 67 70 82 82 80 75 70 78 79 78 75 77 82 84 87 82 85 91 92 95 90 88 89 93 96 97 100 100
46 52 57 59 65 68 70 72 69 60 60 63 60 64 69 69 71 83 85 86 81 84 83 83 83 86 79 82 81 81 83 84 87 92 94 93 90 88 94 96 96 97 99
47 52 59 64 67 70 72 77 77 68 74 72 71 68 69 82 81 76 82 85 82 85 87 89 90 88 85 86 83 84 86 86 92 88 84 85 86 88 90 86 88 95 99
53 56 60 66 71 72 70 67 60 61 62 72 63 63 72 76 72 76 86 87 87 89 89 90 90 90 90 89 89 93 94 92 91 91 92 92 92 92 90 92 93 98 99
57 60 67 70 71 70 71 60 58 64 73 68 62 68 76 78 81 84 89 86 85 88 92 90 87 90 90 87 84 86 88 90 90 90 94 96 94 89 85 86 90 93 99
57 58 62 66 68 69 70 67 61 69 76 70 75 84 88 87 85 88 85 82 85 86 85 84 87 86 83 84 84 85 86 87 89 97 98 97 94 94 89 88 90 92 96

GFSMW_sfc_rhum_270.txt.gz
RH
64 52 47 43 46 51 52 52 64 68 74 80 80 69 77 67 72 65 66 72 74 75 75 78 78 76 75 72 74 72 81 76 87 85 84 82 76 74 74 66 70 66 60
68 63 59 49 47 50 52 53 54 69 80 84 89 70 64 67 62 67 63 70 74 73 72 72 78 73 78 83 79 76 87 75 85 80 86 83 71 73 62 67 63 59 56
80 73 67 60 50 50 53 52 54 60 78 86 93 92 81 80 80 81 79 75 76 74 72 70 72 80 73 78 76 75 72 74 91 80 75 93 84 80 73 63 55 59 69
79 77 76 70 60 53 52 48 52 57 65 81 91 96 97 94 83 75 67 75 78 77 73 70 72 71 76 76 73 75 68 65 69 93 74 78 77 80 83 87 86 71 64
85 86 85 80 69 62 56 53 50 55 61 74 87 94 95 97 95 95 97 96 90 82 75 75 74 73 73 77 78 72 80 71 61 69 91 76 70 91 85 75 78 84 86
84 82 82 80 79 74 63 57 54 53 59 71 79 90 93 93 95 95 94 94 93 93 91 88 81 75 72 72 78 78 73 73 71 63 66 67 67 69 77 81 66 68 60
92 91 90 91 82 85 75 61 60 58 58 68 75 82 89 91 92 94 94 93 94 94 97 96 95 92 83 73 71 75 77 77 75 71 69 70 65 64 70 70 68 81 86
91 90 87 90 86 81 78 74 67 62 61 65 75 78 81 88 89 92 94 93 94 95 95 96 97 96 93 95 88 84 84 81 81 74 73 70 72 71 76 77 78 90 94
87 86 86 83 81 85 81 75 68 63 65 67 67 75 79 83 85 84 87 94 92 88 91 94 94 96 96 97 96 96 93 91 88 84 79 77 74 77 76 73 76 77 83
88 84 87 83 81 83 82 76 66 63 60 60 69 70 70 78 80 83 84 85 87 87 89 90 91 92 94 95 97 97 95 94 96 91 92 86 80 84 85 81 78 80 80
84 88 86 85 84 88 86 88 78 66 65 64 64 69 72 74 71 81 81 84 83 84 83 86 88 88 91 92 94 96 96 95 95 94 95 93 94 92 89 92 88 87 89
78 88 87 86 87 88 87 84 85 79 72 66 74 80 78 78 75 75 79 82 81 81 85 84 84 83 88 90 92 93 93 96 96 95 95 96 94 96 97 96 95 92 89
63 70 79 85 83 82 82 76 70 66 58 73 77 83 84 76 76 79 83 78 78 79 85 85 86 87 87 88 88 89 90 92 94 95 95 95 96 96 96 96 98 96 94
42 46 51 52 52 53 59 60 60 64 69 74 74 76 78 78 78 80 87 78 78 83 81 84 82 88 88 87 85 82 86 89 89 92 93 94 94 97 98 96 95 95 97
37 39 45 48 49 57 60 59 62 67 73 73 74 79 79 75 78 79 84 83 85 82 80 83 81 80 76 82 86 88 87 87 86 89 89 92 92 95 99 98 98 99 96
38 42 46 47 57 61 62 61 64 68 71 71 75 72 72 73 80 85 84 85 83 78 85 81 82 83 72 87 88 89 81 84 85 86 84 85 89 89 95 100 100 100 99
44 49 51 58 62 64 63 68 66 68 71 72 70 71 72 74 79 82 84 88 90 81 84 84 85 86 86 86 86 89 84 85 84 83 86 83 81 94 90 92 94 97 100
50 52 59 64 64 64 66 67 66 68 71 72 70 71 74 75 87 84 87 91 85 83 87 86 78 79 76 84 88 88 84 87 83 83 85 81 81 90 90 83 88 91 90
55 57 60 65 67 64 64 67 72 74 72 73 72 71 73 77 76 90 92 91 87 90 86 70 72 74 72 81 87 88 85 86 91 85 84 83 83 93 94 87 92 93 98
56 58 61 65 66 66 67 74 77 77 77 70 66 67 76 72 83 87 87 89 85 83 72 74 70 70 70 70 71 82 80 84 85 83 81 87 88 89 91 91 93 94 100
60 56 62 66 68 70 72 77 77 79 70 67 63 60 58 75 83 81 85 84 69 69 76 71 74 70 72 70 72 78 80 84 87 88 90 91 90 89 85 86 92 96 100
58 61 67 75 77 76 76 79 80 79 67 70 70 69 62 60 61 68 71 72 76 84 83 84 83 84 76 76 77 82 85 85 90 92 92 90 86 86 87 89 89 92 95
59 63 69 75 78 77 78 79 77 72 64 66 65 62 63 63 67 75 80 86 85 85 87 90 92 90 85 86 86 88 88 89 94 92 90 89 90 90 92 90 90 92 96
64 67 70 75 77 74 74 76 72 70 66 64 64 60 69 73 71 78 88 91 92 90 90 92 92 91 88 88 87 88 88 88 89 89 92 94 95 93 94 95 92 95 96
66 68 72 74 72 72 74 73 73 75 74 74 72 76 75 74 83 85 89 89 85 88 86 89 89 93 91 85 84 87 89 91 90 91 92 86 86 84 85 90 89 91 92
63 66 69 72 72 71 73 73 74 82 86 89 90 88 86 90 90 89 87 83 85 85 83 84 88 85 82 84 85 85 85 86 88 94 92 87 86 91 91 93 92 91 91

GFSMW_sfc_rhum_273.txt.gz
RH
72 64 60 56 53 49 52 52 60 67 81 86 92 90 83 77 83 81 79 80 82 82 83 80 83 86 82 81 86 86 87 88 93 93 84 79 82 82 74 72 70 70 65
75 69 69 67 60 56 55 52 55 65 78 86 85 87 88 74 69 72 74 78 80 82 81 79 78 85 82 82 83 83 88 85 93 80 94 83 77 77 67 65 66 67 62
83 78 74 78 72 64 61 56 53 59 73 86 90 89 84 83 90 89 80 78 77 79 81 78 78 80 82 80 82 83 82 77 90 82 78 92 90 86 75 69 59 61 68
84 80 82 83 83 77 68 61 55 58 64 79 91 91 95 96 95 95 93 88 86 88 85 81 80 78 83 78 80 79 79 79 76 96 78 68 82 76 74 84 88 83 70
90 89 88 88 83 86 83 71 60 56 61 77 86 93 92 93 93 94 93 93 93 88 83 87 89 87 84 83 80 77 87 78 74 71 80 87 75 91 83 68 56 76 86
88 86 83 84 86 87 81 77 66 58 60 73 82 89 92 89 92 93 95 95 94 94 92 91 95 94 92 93 92 87 84 81 78 73 70 74 81 65 75 80 69 66 59
88 89 86 87 80 86 81 73 67 59 64 70 78 86 90 90 89 91 93 93 92 95 95 95 96 96 96 93 93 95 96 93 96 90 86 78 73 66 65 73 73 71 66
87 87 86 88 86 84 85 83 67 54 61 70 80 83 85 89 90 87 90 91 94 96 95 94 93 93 93 95 97 97 97 97 97 95 95 92 90 87 78 76 76 76 74
84 86 83 86 86 88 88 88 80 62 58 62 68 78 88 86 88 86 85 88 87 87 93 95 92 93 92 94 96 97 97 97 98 98 96 94 94 93 91 90 82 83 85
81 84 86 83 85 88 90 86 87 79 70 66 67 69 82 84 86 87 84 85 85 84 87 89 92 91 91 92 94 96 95 95 97 97 98 98 96 95 94 94 90 92 92
76 77 85 85 86 90 90 91 86 82 75 74 75 79 81 83 82 88 84 89 88 87 89 87 86 86 89 88 90 91 90 92 94 94 96 95 97 96 96 96 95 93 90
66 76 87 88 89 88 88 88 79 76 77 79 82 85 80 82 80 86 85 85 86 85 86 85 85 88 89 86 86 86 85 88 91 92 94 93 90 96 98 98 96 96 96
61 62 73 82 81 79 68 70 72 76 78 80 82 81 80 82 87 86 85 82 86 81 82 84 86 84 87 81 85 86 86 88 88 88 90 90 93 95 95 96 97 98 96
50 54 53 54 57 62 67 69 71 78 78 79 80 84 85 84 86 88 88 87 84 79 82 81 84 86 83 83 83 85 86 88 86 89 89 89 92 92 93 94 95 97 98
44 48 54 62 68 69 68 68 72 78 78 80 82 84 84 83 84 86 87 89 86 78 80 83 85 86 80 78 88 88 87 87 87 87 86 88 91 94 96 94 95 97 96
46 50 54 62 66 65 69 69 72 77 77 80 80 78 80 80 81 85 90 88 85 81 85 88 89 86 75 85 85 89 89 85 86 87 83 85 86 88 92 90 90 98 99
51 53 60 65 66 67 69 74 75 75 78 80 79 79 78 82 83 84 80 82 87 88 89 92 71 73 72 75 81 87 87 87 89 86 84 80 68 83 87 84 85 88 95
54 57 67 68 67 68 72 74 76 78 80 81 80 79 81 87 89 89 89 89 87 88 92 73 70 70 66 78 77 78 81 82 84 86 88 86 85 84 91 87 83 83 85
57 61 67 69 70 69 71 75 77 79 77 78 77 76 80 85 88 93 93 94 93 84 79 67 71 68 69 78 83 81 76 82 87 84 84 84 85 86 84 81 85 82 85
60 63 68 69 71 72 75 77 80 80 81 80 79 77 73 80 85 79 80 77 66 67 69 68 68 76 68 72 78 74 77 87 89 87 84 85 90 91 88 90 93 96 91
63 62 68 72 74 77 77 80 82 83 82 75 69 64 67 63 62 64 65 67 68 68 76 68 71 81 68 69 68 76 82 89 92 85 87 91 88 88 88 89 95 94 90
64 68 76 81 82 80 79 81 80 80 78 76 73 70 69 62 59 69 68 66 74 84 84 82 78 81 75 77 83 85 87 88 93 88 87 85 87 82 87 92 91 91 92
67 74 81 83 81 78 80 81 78 79 78 77 77 77 74 73 66 74 80 84 82 84 83 84 85 86 83 88 85 87 88 86 89 86 87 88 91 90 90 92 93 94 95
72 75 79 80 78 74 73 78 78 79 81 82 83 80 85 83 77 74 84 91 92 92 88 86 86 87 87 88 88 86 86 83 82 84 87 89 94 94 97 97 94 95 95
73 75 77 78 74 75 74 75 78 83 83 87 88 88 91 81 78 79 88 92 90 92 92 89 89 92 91 87 85 89 90 88 86 92 86 83 87 89 89 90 90 93 93
74 75 75 75 74 76 74 75 77 87 91 94 96 96 94 89 87 84 86 84 85 84 85 84 87 85 83 83 85 85 76 75 83 90 92 94 93 93 93 96 96 94 97

GFSMW_sfc_rhum_276.txt.gz
RH
74 69 70 69 64 58 58 55 56 63 70 76 86 85 89 86 86 92 90 91 90 90 90 88 86 95 90 89 94 95 95 95 95 93 92 86 81 82 77 74 74 72 70
80 73 74 78 76 68 65 59 56 61 69 75 82 82 84 90 88 83 83 85 85 88 90 87 84 87 89 91 94 92 94 92 94 92 94 90 76 85 78 73 71 72 67
90 84 79 84 85 77 78 65 60 59 68 80 82 81 81 80 89 89 91 90 84 87 87 89 89 85 92 86 89 90 88 86 94 85 83 91 90 86 77 78 79 76 78
86 84 84 84 88 87 79 72 66 59 62 76 86 90 90 88 91 94 92 91 86 86 84 88 91 95 88 90 86 83 82 83 83 97 81 74 81 77 74 75 78 80 76
87 88 87 88 88 89 91 81 68 62 66 76 84 90 92 92 89 87 90 91 91 89 87 89 91 92 94 95 91 88 88 84 84 82 93 92 84 89 82 81 69 68 75
85 84 81 80 84 88 82 80 72 59 66 77 84 89 92 94 91 91 91 92 91 91 90 92 93 92 93 94 96 97 95 93 91 90 89 86 86 87 88 89 80 75 66
87 86 83 86 83 87 89 78 76 64 65 75 80 88 89 92 90 91 93 90 90 92 94 93 94 94 94 95 96 96 97 98 97 97 97 96 93 94 92 91 85 81 72
87 87 82 85 86 86 89 90 88 78 72 76 79 81 84 88 89 88 90 91 91 92 90 92 90 94 92 94 96 97 96 97 98 98 97 96 95 93 91 93 96 96 88
82 83 84 83 85 86 89 93 91 80 78 80 82 83 85 88 90 89 87 90 89 87 91 90 92 89 90 92 93 95 96 96 97 97 97 97 96 98 97 96 95 96 96
80 81 85 86 84 87 91 91 87 83 82 83 85 80 84 85 88 85 87 89 89 88 90 88 90 90 87 86 88 92 90 91 95 95 95 95 95 96 97 97 95 95 95
75 76 81 86 86 88 90 86 79 82 84 82 83 86 86 85 85 88 88 89 89 86 88 85 89 85 88 84 87 87 84 86 89 89 90 90 90 94 95 97 98 98 98
73 79 84 86 87 87 79 78 81 84 84 83 82 84 84 85 88 88 89 88 88 85 86 85 88 85 85 85 86 88 86 86 90 89 91 89 87 92 92 94 94 95 95
64 72 71 65 67 71 72 76 82 82 82 81 83 84 85 86 88 91 90 89 87 83 85 85 89 88 89 84 87 87 87 87 88 89 91 91 91 92 94 94 94 95 92
59 56 58 64 69 70 74 76 82 82 81 82 85 87 89 89 90 91 90 90 89 83 83 86 90 89 88 83 84 86 88 89 86 89 89 84 91 94 93 90 91 89 96
52 53 60 71 74 74 75 76 80 81 81 83 85 88 88 89 88 90 89 89 88 84 87 88 89 86 75 71 83 86 87 86 86 88 84 84 86 86 90 89 90 90 94
48 53 60 68 69 70 76 76 79 83 83 85 86 86 86 88 89 90 86 85 89 89 90 91 75 71 63 72 72 71 71 83 82 85 86 84 82 83 88 89 90 92 94
51 57 63 68 69 72 74 80 81 81 83 84 83 84 86 90 90 89 84 88 91 94 93 79 68 67 65 74 76 77 66 83 84 82 82 78 68 86 84 84 84 82 85
53 58 69 73 72 74 77 80 80 80 81 82 82 82 84 90 92 92 82 85 84 80 70 69 69 71 69 68 75 80 66 77 83 85 84 85 83 82 86 81 82 80 78
59 65 72 74 75 74 77 79 80 81 82 84 84 84 82 86 89 80 85 82 77 75 76 64 66 69 77 80 80 78 63 79 88 86 80 84 85 85 87 91 90 90 91
62 67 73 75 76 79 81 80 84 84 87 84 82 81 78 78 78 72 73 71 62 64 69 71 70 69 66 65 74 72 81 90 87 76 72 77 81 82 82 85 88 92 93
66 69 75 77 79 82 80 82 84 83 83 81 78 77 76 78 75 80 68 67 70 67 71 67 69 69 73 73 73 80 87 91 85 82 85 84 86 87 78 77 82 89 92
70 74 81 85 86 83 79 83 82 79 81 82 81 80 78 74 70 82 72 84 88 90 89 85 78 83 85 83 84 85 86 79 87 84 86 86 84 86 88 90 84 87 91
71 78 84 88 87 83 81 79 76 80 83 84 85 85 82 82 85 86 87 88 91 95 93 92 92 88 84 89 84 87 86 86 92 90 92 91 85 87 91 89 90 91 95
77 84 87 86 86 80 77 77 78 81 85 86 89 90 92 90 90 90 92 94 93 93 92 89 90 86 81 82 87 86 88 88 86 86 88 90 90 90 92 94 93 92 93
78 82 85 85 78 77 74 76 79 85 88 92 92 94 96 95 94 93 92 94 91 93 94 92 91 94 91 87 85 88 88 89 86 91 91 90 89 88 87 88 91 92 92
80 83 81 79 75 77 76 76 80 88 91 92 95 97 97 96 96 96 93 84 84 84 84 85 88 85 82 83 84 84 83 84 85 89 91 93 91 92 92 94 92 91 96

GFSMW_sfc_rhum_279.txt.gz
RH
57 55 57 50 48 49 49 48 52 60 59 62 67 69 78 85 82 84 85 84 86 89 85 80 80 80 78 73 71 71 74 67 68 71 64 60 61 63 54 48 47 47 47
57 60 58 51 52 50 54 52 51 56 58 54 61 66 68 79 80 80 85 84 84 86 91 93 90 84 79 79 78 78 73 68 65 69 62 70 52 50 55 50 48 54 47
58 56 53 52 50 53 55 51 52 53 60 63 56 57 58 59 71 79 83 85 84 86 88 89 89 91 92 90 84 78 79 75 65 74 68 64 58 48 44 56 51 55 52
54 53 50 50 51 54 53 52 51 50 53 62 63 70 67 68 70 73 79 82 80 82 83 87 89 92 94 95 96 94 90 82 79 66 67 68 68 66 60 46 49 52 52
56 55 54 50 48 53 54 55 52 50 54 58 65 63 71 65 64 66 71 73 78 77 78 84 86 90 94 94 95 96 97 96 96 84 76 78 76 79 84 78 59 50 48
55 53 53 50 47 48 55 53 53 52 54 57 62 69 73 68 66 68 71 72 73 73 74 77 89 85 87 92 94 94 92 93 95 96 95 90 81 77 81 84 73 70 61
56 54 50 48 51 53 58 54 54 54 55 57 61 67 69 69 66 68 70 71 74 76 80 80 88 90 78 88 91 93 93 93 97 93 95 96 97 96 96 95 90 89 70
58 58 55 54 53 58 61 58 54 57 54 56 61 61 63 57 61 63 64 67 71 73 74 78 82 83 77 77 81 89 91 93 96 92 94 96 96 96 97 97 98 94 77
56 55 56 59 58 60 64 63 57 58 55 56 58 61 62 64 65 65 63 64 66 60 69 72 77 80 78 78 74 78 82 80 86 93 94 95 94 95 95 96 97 98 96
55 56 57 60 60 62 63 60 60 57 56 56 58 57 61 63 65 64 67 68 67 66 68 69 71 71 77 72 72 73 72 74 79 80 84 83 85 89 92 94 93 96 98
50 55 57 61 63 62 55 60 59 57 57 56 59 62 63 63 63 65 67 69 69 67 67 69 70 69 74 70 72 72 69 70 72 75 78 81 79 87 86 90 89 93 94
48 51 60 63 60 54 55 59 62 57 58 58 60 65 65 62 65 66 66 68 68 67 67 69 69 68 73 70 72 72 71 72 72 72 74 75 75 82 88 90 89 90 90
50 55 50 48 53 52 56 57 59 58 58 57 59 64 67 65 68 67 66 64 66 66 67 68 70 70 74 72 71 71 72 71 70 71 73 72 72 88 88 85 86 83 78
49 41 41 46 50 53 56 60 59 59 59 59 59 64 68 66 68 67 66 67 67 66 66 68 68 70 66 66 68 68 72 71 68 72 72 70 70 74 78 73 76 72 78
43 40 44 49 51 55 57 58 59 61 61 60 60 67 68 65 68 70 69 69 70 67 66 67 63 63 58 52 67 67 68 68 70 68 61 67 73 80 81 74 76 76 75
39 38 44 49 53 55 55 58 60 62 59 60 62 63 63 65 69 70 70 69 68 67 68 66 64 64 51 74 69 69 64 63 64 65 63 62 68 69 80 83 88 84 76
37 39 44 49 51 52 56 58 58 58 59 60 62 62 60 63 68 64 63 65 66 66 65 64 62 63 63 77 84 80 60 62 61 62 63 59 52 71 65 72 79 74 82
36 39 43 49 51 52 54 59 54 56 58 56 56 58 59 59 83 62 60 68 62 62 62 64 67 66 61 75 78 79 61 60 63 66 69 72 71 71 79 77 78 76 74
35 40 42 47 51 53 56 55 56 54 54 55 56 56 60 58 59 77 100 83 67 68 65 57 61 64 62 74 77 72 60 63 70 70 71 74 73 75 83 80 80 78 83
41 44 49 50 53 56 57 58 57 55 54 57 56 55 56 54 55 60 63 63 59 58 59 58 60 64 60 68 77 75 63 69 75 72 70 78 80 85 85 83 84 89 92
49 48 52 53 54 58 59 61 61 54 56 59 58 57 54 55 53 57 58 57 57 60 64 63 63 64 64 67 79 82 72 77 81 80 81 75 80 84 85 86 85 92 95
49 54 55 58 61 62 60 56 50 59 60 61 60 57 58 56 54 62 60 59 61 68 68 69 72 73 66 73 73 81 85 83 82 82 82 76 81 85 87 84 85 89 92
46 52 54 63 65 63 56 49 55 60 63 64 63 63 64 62 62 66 68 74 72 76 74 78 80 78 76 76 76 82 83 84 90 84 87 91 89 87 85 82 86 89 89
46 51 57 62 67 62 54 50 57 62 66 64 65 64 68 70 66 70 78 82 84 83 80 80 85 86 83 80 80 82 85 83 82 82 82 83 90 89 88 85 81 81 80
51 55 57 60 59 57 53 54 57 65 65 66 65 66 72 72 80 83 86 85 79 84 92 87 82 87 89 86 87 87 82 86 83 86 82 83 81 81 80 79 80 83 82
54 57 58 58 56 53 52 54 60 64 68 66 69 74 84 80 74 76 85 80 85 76 75 84 81 76 80 84 80 79 81 82 82 83 85 89 90 89 86 87 88 87 86